Wind_Speed
24 24 25 26 27 28 29 30 30 30 31 32 33 32 32 32 33 34 34 35 35 36 37 38 39 40 41 41 42 43 44 44 44 44 44 44 44 43 43 43 44 44 43 43
26 26 27 27 28 29 30 31 32 32 32 33 33 32 32 33 34 34 35 35 36 37 37 38 38 39 40 42 43 44 44 45 45 45 45 45 45 44 44 43 43 44 45 45
28 28 28 29 30 31 31 32 32 33 33 33 34 34 33 34 34 35 36 36 37 37 38 38 39 40 41 42 43 44 45 45 45 45 45 45 45 46 45 45 45 44 45 46
28 29 29 30 31 32 32 32 33 34 35 35 36 37 34 34 35 36 37 38 38 38 39 40 40 41 42 42 43 44 45 45 45 45 45 45 46 46 46 46 45 45 46 46
29 30 31 31 32 33 33 33 34 35 36 37 37 39 36 36 36 36 37 38 39 40 41 41 42 42 43 43 43 44 45 45 46 46 46 46 46 46 46 46 46 46 46 47
31 32 33 33 34 35 35 36 36 37 38 38 37 39 39 37 37 37 38 39 40 41 42 43 43 43 43 44 44 44 45 45 46 46 46 46 46 47 47 47 46 46 47 47
33 33 34 34 35 36 36 37 38 39 39 39 38 40 40 38 38 39 40 40 41 42 43 43 44 44 44 45 45 45 45 45 45 45 46 46 47 47 47 48 48 46 46 47
35 35 36 36 37 37 37 37 38 40 41 41 40 41 41 40 40 41 41 42 43 44 44 45 45 45 46 46 46 46 46 45 45 45 46 46 47 48 48 48 49 48 47 48
38 38 38 38 38 38 38 37 38 40 41 42 42 42 42 42 42 43 43 44 45 46 46 45 46 46 46 46 46 46 45 45 45 45 46 47 48 48 49 50 50 49 48 49
39 40 39 39 39 39 39 39 39 40 42 43 42 42 43 42 43 44 45 45 45 45 46 46 46 46 45 45 45 45 45 45 45 45 45 47 47 48 49 50 51 51 50 49
39 40 40 40 39 40 40 40 40 42 42 43 45 44 43 44 45 46 46 46 46 46 46 46 45 45 44 43 43 44 44 44 44 45 45 45 46 47 48 49 50 50 50 49
39 41 41 41 41 41 41 41 41 41 43 44 46 46 45 44 45 46 46 47 46 46 46 46 46 45 44 44 43 43 44 44 44 44 45 44 44 45 46 47 48 48 49 49
40 41 42 42 42 42 42 41 41 42 44 44 45 45 45 45 46 46 47 47 47 47 47 46 46 45 45 44 43 43 44 44 43 44 44 44 44 44 44 45 45 46 47 47
41 41 42 42 43 43 42 41 41 42 44 45 44 45 45 45 46 46 46 46 46 46 46 46 46 45 44 44 44 44 44 44 44 44 44 44 44 43 43 43 43 43 43 44
41 42 42 43 43 43 43 42 42 43 44 45 44 45 45 45 45 45 45 46 45 45 45 46 45 45 45 44 44 44 44 43 43 43 43 43 43 43 42 42 42 42 42 42
41 42 42 42 42 44 44 42 43 43 43 44 45 45 44 44 44 45 45 45 45 45 45 45 45 44 44 44 44 44 43 43 43 43 42 41 41 41 41 41 41 41 41 41
42 42 43 43 42 44 44 42 42 43 43 44 44 44 43 43 43 43 43 44 44 44 44 44 44 44 44 44 44 44 44 43 43 43 42 41 40 40 40 40 40 40 39 39
41 42 43 44 44 45 43 42 42 43 43 43 43 43 42 42 42 42 42 43 43 43 43 43 43 43 43 44 44 43 43 43 43 42 41 41 40 39 38 38 37 38 37 38
40 42 43 44 45 46 44 43 43 43 42 42 42 41 41 40 40 40 41 42 42 43 43 43 43 43 43 43 43 43 42 42 41 41 39 39 38 37 37 36 35 36 36 37
40 41 43 43 45 45 45 44 43 44 42 41 41 40 40 40 40 39 39 40 41 42 42 42 42 42 42 42 41 41 40 40 39 39 38 38 37 36 35 35 35 35 34 35
41 42 42 43 44 45 44 43 42 42 42 41 41 40 40 40 40 40 40 40 41 41 41 42 42 42 41 40 39 39 38 37 37 36 35 35 34 34 33 33 33 33 33 33
41 42 42 43 44 43 43 42 41 41 41 41 41 40 40 40 40 40 40 40 41 41 41 42 42 41 40 39 38 37 36 35 35 34 33 33 32 32 31 31 32 32 32 32
41 42 43 43 43 42 42 41 41 41 41 40 40 40 39 39 39 39 40 41 41 41 41 41 41 40 39 38 37 36 35 34 34 33 32 32 31 31 30 30 30 31 31 31
41 41 42 42 41 41 41 41 41 41 41 40 40 39 39 39 39 39 40 41 41 41 41 40 39 38 38 37 37 36 35 34 34 33 32 31 31 30 30 30 30 30 30 30
40 40 40 40 40 40 40 40 40 40 40 40 39 38 38 38 39 39 40 40 40 40 39 38 37 36 36 36 35 35 34 33 32 31 31 30 30 30 30 30 30 29 29 29
38 39 39 39 39 40 39 39 39 39 39 38 38 37 37 38 38 39 39 39 39 38 38 37 36 36 35 34 33 33 32 31 30 30 29 29 29 29 28 28 28 29 28 28
Wind_Direction
289 289 290 291 292 293 293 293 293 293 292 290 289 287 286 285 285 284 284 285 285 284 283 282 280 279 278 277 277 276 276 276 275 275 272 270 268 267 265 264 261 260 259 257
289 290 291 291 291 292 292 292 293 293 293 292 290 288 286 286 286 286 286 287 287 287 285 284 283 282 281 280 279 278 278 277 275 274 272 270 268 266 265 263 262 260 258 256
290 291 291 291 292 293 293 293 293 293 293 292 291 290 289 289 288 288 288 289 289 289 288 287 286 285 283 283 282 281 279 277 276 274 272 270 268 265 265 264 261 260 258 257
291 292 292 292 293 294 294 293 294 294 293 293 293 291 290 291 291 291 290 290 290 289 289 288 287 286 285 284 283 282 280 278 276 274 272 270 268 266 266 265 263 260 258 257
291 292 293 293 294 294 294 294 293 293 293 292 294 294 294 293 293 293 292 291 291 290 289 288 288 287 286 285 285 283 282 279 277 275 273 270 268 266 265 265 264 262 261 259
291 291 292 293 294 294 294 294 294 293 293 293 295 294 295 295 295 294 292 291 291 291 290 289 289 288 286 285 285 284 283 281 278 275 273 270 269 266 264 264 264 263 261 259
292 293 294 294 294 295 294 295 295 294 294 294 295 294 295 296 296 295 293 292 291 290 290 290 289 288 287 285 285 284 283 282 280 277 273 271 269 267 265 264 263 263 262 260
292 293 294 295 295 296 295 295 295 295 295 295 295 295 296 296 295 294 293 292 291 291 290 290 289 288 287 286 285 284 283 282 280 278 275 272 269 268 266 265 263 263 263 261
292 292 294 295 295 295 294 293 293 293 293 292 293 295 294 295 294 293 292 292 292 292 291 290 289 288 287 286 285 284 283 282 281 279 276 274 271 269 267 266 264 263 263 262
291 292 293 294 295 294 294 294 293 292 293 293 294 294 295 296 295 294 294 293 293 292 292 292 291 289 288 286 285 283 282 281 281 279 277 275 273 270 269 267 266 264 263 262
291 291 292 293 294 295 294 293 292 291 291 292 294 294 295 295 294 293 293 293 292 293 293 293 292 291 289 287 285 283 282 281 280 279 278 276 274 272 270 268 267 265 263 262
291 291 292 292 292 293 293 292 291 290 290 291 292 294 295 294 293 292 292 292 292 292 293 293 292 290 289 287 286 284 282 281 280 280 279 277 275 274 272 270 268 265 264 262
291 291 292 293 293 293 292 291 290 289 289 290 292 295 295 293 292 292 292 293 293 293 293 293 291 290 289 288 286 285 284 282 281 281 279 278 277 275 273 271 269 267 264 262
290 291 292 293 294 294 293 292 290 290 290 290 292 293 293 293 292 292 293 293 294 294 294 293 292 291 289 288 287 286 285 284 283 282 280 279 277 275 273 272 269 267 265 262
291 292 293 293 294 293 293 292 291 291 291 291 293 292 293 292 292 292 293 293 294 295 295 294 293 291 290 289 288 287 285 284 284 283 281 280 277 275 273 271 270 267 265 264
291 292 293 293 293 293 293 293 293 292 292 292 292 291 292 291 292 292 293 293 294 294 295 295 294 292 291 290 290 288 287 285 284 283 282 280 277 275 273 272 271 268 266 264
292 293 294 294 294 294 294 296 294 293 293 293 293 293 292 291 292 292 292 293 294 295 296 296 295 293 292 291 290 290 288 286 285 284 282 280 278 276 274 273 270 268 266 265
293 293 294 295 295 295 298 298 296 295 295 294 293 293 293 293 293 294 294 294 294 296 296 297 297 296 294 292 291 291 289 287 286 285 282 280 278 276 274 273 270 268 266 264
293 294 294 295 295 297 298 298 297 296 296 295 295 294 294 294 294 294 295 295 296 297 297 298 298 297 296 294 293 292 291 288 286 285 282 280 277 276 275 271 269 267 266 265
294 294 295 295 296 298 300 299 297 296 296 296 295 295 294 295 295 296 296 296 297 298 299 299 299 299 297 296 295 293 292 289 287 286 283 280 277 277 274 271 269 268 267 266
294 294 295 296 296 298 300 298 297 296 297 296 295 295 295 295 296 297 297 297 298 299 299 300 300 300 299 298 297 295 293 290 289 288 285 282 279 277 274 272 271 269 268 267
295 295 295 295 296 298 298 297 296 296 296 295 295 295 295 296 296 297 297 297 298 299 300 300 300 300 299 299 297 296 294 291 290 289 286 283 280 278 275 273 272 270 269 268
295 295 294 294 295 296 296 296 296 295 295 296 295 295 295 296 296 297 298 299 299 300 301 301 300 300 299 298 297 296 294 292 291 290 287 284 281 278 276 275 274 272 270 267
295 294 292 293 294 295 295 295 295 294 295 295 295 295 295 296 297 298 299 300 300 302 303 302 301 300 299 297 296 295 294 292 291 289 287 284 282 279 277 275 275 272 270 267
295 293 292 293 294 293 293 294 293 293 293 294 295 296 296 297 298 299 300 302 302 303 304 303 303 302 300 299 298 296 294 292 290 288 287 284 282 280 277 276 274 272 270 267
293 292 292 293 294 294 294 293 293 293 293 294 294 295 296 297 298 300 302 303 304 304 303 303 303 302 300 299 299 298 296 293 291 289 287 285 283 280 277 276 274 272 270 268
Height
5763 5763 5760 5759 5757 5755 5752 5750 5748 5745 5743 5740 5739 5737 5736 5734 5733 5731 5730 5729 5727 5726 5725 5723 5722 5721 5720 5719 5718 5716 5715 5713 5712 5711 5710 5710 5710 5710 5710 5710 5711 5713 5715 5717
5758 5756 5754 5752 5750 5748 5745 5743 5740 5738 5735 5732 5731 5729 5728 5726 5725 5723 5721 5720 5718 5716 5715 5713 5712 5710 5709 5707 5706 5704 5702 5700 5699 5698 5697 5697 5697 5698 5698 5698 5700 5701 5703 5705
5751 5750 5747 5745 5743 5741 5738 5735 5733 5730 5728 5725 5723 5722 5721 5718 5716 5714 5713 5711 5709 5707 5705 5703 5701 5699 5697 5695 5693 5691 5690 5688 5687 5685 5685 5685 5685 5685 5686 5686 5687 5689 5690 5693
5744 5742 5740 5738 5736 5733 5731 5728 5725 5722 5719 5717 5715 5712 5713 5710 5707 5705 5703 5701 5699 5697 5694 5692 5690 5688 5686 5683 5681 5679 5677 5676 5674 5673 5672 5672 5672 5673 5673 5674 5675 5676 5678 5680
5737 5735 5733 5731 5729 5725 5723 5720 5717 5714 5711 5709 5707 5703 5703 5701 5698 5696 5693 5691 5688 5686 5684 5681 5679 5677 5674 5672 5669 5667 5665 5663 5661 5660 5659 5659 5659 5660 5661 5661 5663 5664 5666 5667
5730 5728 5725 5723 5720 5717 5714 5712 5708 5705 5702 5700 5699 5694 5693 5691 5689 5687 5684 5681 5678 5675 5673 5670 5668 5665 5662 5659 5657 5654 5652 5650 5648 5647 5646 5646 5646 5647 5648 5649 5650 5651 5653 5654
5722 5720 5717 5715 5712 5709 5706 5703 5699 5695 5692 5691 5690 5685 5684 5682 5679 5676 5673 5670 5667 5664 5662 5659 5656 5653 5650 5647 5644 5642 5639 5637 5635 5634 5633 5633 5633 5633 5634 5635 5636 5637 5639 5640
5713 5712 5709 5706 5703 5700 5697 5694 5691 5687 5683 5681 5679 5676 5675 5672 5669 5665 5662 5659 5656 5653 5650 5647 5643 5640 5637 5634 5631 5629 5626 5624 5622 5621 5619 5619 5619 5619 5620 5621 5622 5623 5625 5626
5703 5702 5700 5697 5694 5691 5688 5685 5682 5677 5673 5671 5669 5667 5664 5662 5659 5655 5651 5648 5645 5641 5638 5635 5631 5628 5625 5622 5619 5616 5614 5612 5609 5608 5606 5605 5605 5605 5605 5606 5607 5609 5610 5611
5694 5692 5691 5688 5685 5682 5678 5675 5672 5667 5663 5660 5659 5656 5654 5651 5648 5644 5640 5637 5633 5630 5627 5623 5619 5616 5612 5609 5606 5604 5601 5599 5597 5595 5593 5592 5591 5590 5590 5591 5592 5593 5595 5596
5684 5682 5681 5678 5675 5672 5669 5666 5661 5657 5654 5650 5647 5648 5644 5640 5636 5632 5629 5625 5622 5618 5615 5611 5607 5604 5600 5596 5593 5591 5589 5586 5584 5582 5580 5578 5577 5576 5576 5576 5577 5578 5579 5580
5675 5672 5669 5668 5665 5661 5658 5655 5652 5649 5645 5640 5636 5638 5632 5629 5624 5620 5617 5614 5610 5606 5602 5599 5595 5591 5588 5584 5581 5579 5576 5573 5571 5569 5567 5565 5564 5563 5562 5562 5562 5562 5563 5564
5665 5662 5659 5657 5656 5652 5648 5645 5641 5637 5634 5630 5626 5627 5621 5617 5613 5609 5605 5602 5598 5594 5590 5586 5582 5579 5576 5572 5569 5566 5563 5561 5559 5556 5554 5553 5551 5549 5548 5548 5547 5547 5548 5549
5654 5652 5650 5647 5642 5639 5636 5634 5631 5626 5623 5619 5617 5613 5609 5604 5600 5597 5593 5590 5586 5582 5578 5574 5570 5567 5563 5560 5557 5554 5551 5549 5546 5544 5541 5539 5537 5536 5535 5534 5534 5533 5533 5535
5644 5642 5639 5636 5632 5628 5625 5623 5620 5616 5612 5608 5606 5601 5598 5593 5589 5585 5582 5578 5574 5570 5566 5562 5558 5554 5551 5548 5545 5542 5539 5536 5533 5531 5528 5526 5524 5523 5522 5521 5521 5520 5521 5521
5633 5630 5628 5625 5622 5618 5615 5613 5609 5605 5601 5597 5594 5591 5587 5582 5578 5574 5570 5567 5563 5559 5555 5550 5546 5542 5539 5536 5533 5529 5526 5524 5521 5518 5516 5513 5511 5510 5509 5508 5508 5508 5508 5508
5623 5619 5616 5614 5611 5606 5605 5603 5598 5594 5590 5586 5582 5580 5575 5571 5567 5563 5559 5555 5551 5547 5543 5539 5535 5530 5527 5523 5520 5517 5514 5511 5508 5505 5503 5501 5499 5497 5496 5495 5495 5495 5496 5496
5612 5608 5604 5601 5599 5596 5597 5591 5587 5583 5580 5575 5570 5567 5563 5559 5556 5552 5548 5544 5540 5536 5532 5527 5523 5519 5515 5511 5508 5504 5501 5498 5495 5492 5490 5488 5486 5485 5484 5483 5483 5483 5483 5484
5602 5598 5594 5590 5586 5584 5584 5580 5575 5571 5569 5564 5559 5556 5552 5548 5545 5542 5538 5533 5529 5525 5520 5516 5511 5507 5503 5499 5495 5492 5488 5485 5482 5480 5477 5475 5474 5473 5472 5472 5471 5471 5472 5472
5591 5588 5584 5580 5575 5573 5573 5568 5563 5560 5557 5554 5549 5545 5541 5538 5535 5533 5527 5523 5518 5514 5509 5505 5500 5496 5492 5487 5483 5480 5476 5473 5470 5467 5465 5463 5462 5461 5461 5460 5460 5460 5460 5461
5581 5577 5574 5569 5564 5562 5561 5556 5552 5550 5547 5542 5538 5534 5531 5528 5524 5521 5516 5512 5507 5503 5499 5494 5489 5485 5480 5476 5472 5468 5465 5461 5458 5456 5453 5452 5451 5450 5450 5449 5449 5449 5450 5450
5570 5566 5563 5559 5554 5555 5549 5545 5542 5539 5534 5531 5527 5524 5520 5517 5513 5510 5505 5501 5497 5493 5488 5483 5479 5474 5470 5465 5461 5458 5454 5451 5448 5446 5444 5442 5441 5440 5439 5439 5439 5439 5439 5440
5560 5557 5552 5549 5548 5543 5538 5534 5531 5527 5524 5520 5517 5514 5510 5507 5503 5499 5495 5491 5487 5482 5478 5473 5468 5464 5459 5455 5451 5448 5444 5441 5439 5436 5434 5432 5431 5430 5429 5429 5429 5429 5429 5429
5549 5545 5541 5538 5536 5532 5528 5524 5520 5517 5513 5510 5506 5503 5500 5496 5493 5489 5485 5481 5476 5472 5467 5462 5458 5454 5449 5445 5441 5438 5435 5432 5429 5427 5425 5423 5422 5421 5420 5419 5419 5419 5419 5420
5539 5534 5530 5527 5525 5521 5517 5513 5510 5506 5503 5500 5496 5493 5490 5486 5483 5479 5475 5470 5466 5461 5456 5452 5447 5443 5439 5435 5431 5428 5425 5422 5420 5418 5416 5414 5413 5411 5411 5410 5409 5409 5410 5410
5528 5523 5519 5517 5514 5510 5508 5503 5500 5496 5493 5490 5487 5484 5480 5476 5473 5469 5464 5460 5455 5451 5446 5442 5438 5434 5429 5426 5422 5419 5416 5413 5411 5409 5407 5405 5404 5402 5402 5401 5401 5400 5401 5401